"Pseudo-MPEC" for vk08c06

Created 2021 Jun 11 11:07:23 UT using Find_Orb

Click here for an explanation of pseudo-MPECs

 
 Astrometry: 
     vk08c06 .C2021 06 06[qriCf)(dQcR[Tc'/?=6:%q.t`Ixr,SW6Astrometryv!#%)AVlN807
     vk08c06 .C2021 06 0687sc0jJoqXDW[v)ho\y_X7]^HPf:*#3ng#H7M?IKP+!3MpoLV''L807
     vk08c06 .C2021 06 06rd0@nPZy-GGt%oeRh5WrtX+!)T'_5.e-MvNALbtZ0u.5jtA2cR*7807
     vk08c06 .C2021 06 080i89C?RX(@UnnPt0%.@q/EkPW.\Em+7`)0m;8e[m3)xa:#JZ#ADH807
     vk08c06 .C2021 06 08ftNWBs$'d0te3PaZ=EXredacted;%_[Os9J=a6lAd#=7[E!y/O?i807
     vk08c06 KC2021 06 09boQwgPUlikub*EZE5gy]*j)Eqmt6\7`g4M=Cs,hnIr9)(c_'FiKMT14
     vk08c06  C2021 06 09p5@jV[fDomclickamfH[Zq.MTLU=e6=Ta[[WJU!P2]pV,cqyO?5cT14
     vk08c06 .C2021 06 096C6DIEa4[XBv9$-dY/nkherele!x(forsRXlgA]02'Y1CGm!iCom807
     vk08c06 .C2021 06 09QY'`'L,l(^explanationu!j-GW(*AnfT/!MdkpY8GlsatG@(,;]807

Station data:
(807) Cerro Tololo Observatory, La Serena  (S30.169136 W70.805900)  Chile.
(T14) Mauna Kea-UH/Tholen NEO Follow-Up (CFHT)  (N19.825252 W155.468876)
   US/Hawaii. 3.6-m Canada-France-Hawaii Telescope.

Orbital elements:  vk08c06
   Perihelion 2021 Jul 27.959360 +/- 0.0722907 TT = 23:01:28 (JD 2459423.459360)
Epoch 2021 Jun  9.0 TT = JDT 2459374.5   Earth MOID: 0.1333   Ve: 0.0145
M 271.97851213 +/- 1.5567092        Me: 0.0382                AutoNEOCP
n   1.79784802 +/- 0.032403         Peri.   57.83818 +/- 1.5187962
a   0.66983432 +/- 0.0080482        Node   277.68190 +/- 0.1078526
e   0.3883845 +/- 0.00933753        Incl.    9.83685 +/- 0.0271968
P   0.55/200.24d           H 20.0   G  0.15   U 10.4  
q 0.40968100 +/- 0.0110389    Q 0.92998764 +/- 0.00521885
From 9 observations 2021 June 6-9; mean residual 0".11
Residuals in arcseconds: 
210606 807  .12-  .14+    210608 807  .03-  .00     210609 T14  .07-  .01-    
210606 807  .06+  .01-    210608 807  .04-  .31-    210609 807  .05-  .16+    
210606 807  .07+  .09-    210609 T14  .07+  .02+    210609 807  .04+  .17-    

Ephemerides (geocentric):
Date (UTC) HH   RA              Dec         delta   r     elong  mag " sig PA
---- -- -- --  -------------   -----------  ------ ------ -----  --- ---- ---
2021 06 11 11  08 24 48.039   +10 37 01.37  .79954 .73758  46.1 21.8 1.36   4
2021 06 11 12  08 24 53.126   +10 36 57.88  .79928 .73728  46.1 21.8 1.40   4
2021 06 11 13  08 24 58.207   +10 36 54.44  .79901 .73698  46.0 21.8 1.44   4
2021 06 11 14  08 25 03.281   +10 36 51.05  .79875 .73668  46.0 21.8 1.48   3
2021 06 11 15  08 25 08.350   +10 36 47.71  .79849 .73638  46.0 21.8 1.53   3
2021 06 11 16  08 25 13.412   +10 36 44.42  .79822 .73608  46.0 21.8 1.57   3
2021 06 11 17  08 25 18.468   +10 36 41.18  .79796 .73578  46.0 21.8 1.61   3
2021 06 11 18  08 25 23.518   +10 36 37.98  .79769 .73548  45.9 21.8 1.66   3
2021 06 11 19  08 25 28.562   +10 36 34.84  .79743 .73519  45.9 21.8 1.70   2
2021 06 11 20  08 25 33.600   +10 36 31.74  .79716 .73488  45.9 21.8 1.75   2
2021 06 11 21  08 25 38.632   +10 36 28.69  .79690 .73458  45.9 21.8 1.79   2
2021 06 11 22  08 25 43.657   +10 36 25.70  .79663 .73428  45.9 21.8 1.84   2
2021 06 11 23  08 25 48.676   +10 36 22.75  .79636 .73398  45.8 21.8 1.89   2
2021 06 12 00  08 25 53.689   +10 36 19.85  .79609 .73368  45.8 21.8 1.94   1
2021 06 12 01  08 25 58.696   +10 36 17.01  .79583 .73338  45.8 21.8 1.98   1
2021 06 12 02  08 26 03.696   +10 36 14.21  .79556 .73308  45.8 21.8 2.03   1
2021 06 12 03  08 26 08.690   +10 36 11.47  .79529 .73278  45.8 21.8 2.08   1
2021 06 12 04  08 26 13.678   +10 36 08.77  .79502 .73248  45.7 21.8 2.13   1
2021 06 12 05  08 26 18.659   +10 36 06.13  .79475 .73217  45.7 21.8 2.19   1
2021 06 12 06  08 26 23.635   +10 36 03.54  .79448 .73187  45.7 21.8 2.24   0
2021 06 12 07  08 26 28.603   +10 36 01.00  .79421 .73157  45.7 21.8 2.29   0
2021 06 12 08  08 26 33.566   +10 35 58.51  .79394 .73127  45.7 21.8 2.34   0
2021 06 12 09  08 26 38.522   +10 35 56.07  .79367 .73096  45.6 21.8 2.40   0
2021 06 12 10  08 26 43.471   +10 35 53.69  .79340 .73066  45.6 21.8 2.45   0
2021 06 12 11  08 26 48.414   +10 35 51.36  .79313 .73036  45.6 21.8 2.51   0
2021 06 12 12  08 26 53.351   +10 35 49.07  .79286 .73005  45.6 21.8 2.56 179
2021 06 12 13  08 26 58.281   +10 35 46.85  .79259 .72975  45.6 21.8 2.62 179
2021 06 12 14  08 27 03.205   +10 35 44.67  .79232 .72945  45.5 21.8 2.68 179
2021 06 12 15  08 27 08.122   +10 35 42.55  .79204 .72914  45.5 21.8 2.74 179
2021 06 12 16  08 27 13.033   +10 35 40.48  .79177 .72884  45.5 21.8 2.79 179
2021 06 12 17  08 27 17.937   +10 35 38.46  .79150 .72853  45.5 21.8 2.85 179
2021 06 12 18  08 27 22.835   +10 35 36.50  .79122 .72823  45.5 21.8 2.91 178
2021 06 12 19  08 27 27.726   +10 35 34.59  .79095 .72792  45.4 21.8 2.97 178
2021 06 12 20  08 27 32.611   +10 35 32.74  .79068 .72762  45.4 21.8 3.04 178
2021 06 12 21  08 27 37.489   +10 35 30.93  .79040 .72731  45.4 21.8 3.10 178
2021 06 12 22  08 27 42.360   +10 35 29.19  .79013 .72701  45.4 21.8 3.16 178
2021 06 12 23  08 27 47.225   +10 35 27.49  .78985 .72670  45.4 21.8 3.22 178
2021 06 13 00  08 27 52.083   +10 35 25.86  .78957 .72640  45.3 21.8 3.29 178
2021 06 13 01  08 27 56.934   +10 35 24.27  .78930 .72609  45.3 21.8 3.35 177
2021 06 13 02  08 28 01.779   +10 35 22.74  .78902 .72578  45.3 21.8 3.42 177
2021 06 13 03  08 28 06.616   +10 35 21.27  .78874 .72548  45.3 21.8 3.49 177
2021 06 13 04  08 28 11.448   +10 35 19.85  .78847 .72517  45.3 21.8 3.55 177
2021 06 13 05  08 28 16.272   +10 35 18.49  .78819 .72486  45.2 21.8 3.62 177
2021 06 13 06  08 28 21.090   +10 35 17.18  .78791 .72456  45.2 21.8 3.69 177
2021 06 13 07  08 28 25.900   +10 35 15.93  .78763 .72425  45.2 21.8 3.76 177
2021 06 13 08  08 28 30.704   +10 35 14.74  .78735 .72394  45.2 21.8 3.83 177
2021 06 13 09  08 28 35.502   +10 35 13.60  .78707 .72363  45.2 21.8 3.90 176
2021 06 13 10  08 28 40.292   +10 35 12.52  .78680 .72332  45.1 21.8 3.97 176